User: anonymous   Login
Location: Chrome
(40.5765°N, 74.2163°W)
Time: 14:03:08
(UTC+00:00)
Language:

Cosmos 1707 Rocket - Orbit

View from above orbital plane
View from above orbital plane
View from above satellite
View from above satellite

Ground track
Ground track

The orbit data is extracted from the following two-line orbital elements,

1 16327U 85113B   20056.20608802 +.00000061 +00000-0 +44874-5 0  9995
2 16327 082.5315 253.3478 0018753 351.1607 063.1124 14.83457426826461
Epoch (UTC): 25 February 2020 04:56:46
Eccentricity: 0.0018753
inclination: 82.5315°
perigee height: 605 km
apogee height: 631 km
right ascension of ascending node: 253.3478°
argument of perigee: 351.1607°
revolutions per day: 14.83457426
mean anomaly at epoch: 63.1124°
orbit number at epoch: 82646

The dashed part of the orbit path shows where the satellite is in the earth's shadow,  

DLR